Hourly Data Report for October 22, 2013

All times are specified in Local Standard Time (LST). Add 1 hour to adjust for Daylight Saving Time where and when it is observed.

GRISE FIORD CLIMATE
NUNAVUT

76°25'22.040" N
82°54'08.020" W
44.50 m
2402351
71971
NGC

Download Data

Hourly Data (October 2013)
Hourly Data Report for October 22, 2013
Temp Definition
°C
Dew Point Temp Definition
°C
Rel Hum Definition
%
Wind Dir Definition
10's deg

Wind Spd Definition
km/h
Visibility Definition
km
Stn Press Definition
kPa
Hmdx Definition


Wind Chill Definition


Weather Definition


TIME
00:00 -8.3 -8.7 97 7 4   101.70   -10 LegendNANA
01:00 -8.2 -8.5 98   0   101.69     LegendNANA
02:00 -8.9 -9.4 96 13 2   101.69   -10 LegendNANA
03:00 -9.0 -9.5 96 3 2   101.67   -10 LegendNANA
04:00 -8.6 -9.1 96   0   101.67     LegendNANA
05:00 -8.1 -8.5 97 16 4   101.69   -10 LegendNANA
06:00 -9.4 -9.9 96 5 2   101.67   -11 LegendNANA
07:00 -10.7 -11.6 93 5 2   101.65   -12 LegendNANA
08:00 -11.0 -11.7 95 5 6   101.62   -15 LegendNANA
09:00 -9.6 -10.4 94 4 7   101.61   -14 LegendNANA
10:00 -10.7 -12.3 88 8 4   101.58   -13 LegendNANA
11:00 -9.6 -12.4 80 4 9   101.55   -14 LegendNANA
12:00 -9.3 -12.4 78 3 7   101.54   -13 LegendNANA
13:00 -9.5 -12.1 81 6 7   101.51   -13 LegendNANA
14:00 -8.6 -11.8 78 4 9   101.51   -13 LegendNANA
15:00 -10.1 -12.4 83 5 2   101.49   -11 LegendNANA
16:00 -10.6 -12.9 83 12 4   101.49   -13 LegendNANA
17:00 -9.1 -12.5 76 5 13   101.48   -15 LegendNANA
18:00 -9.8 -12.9 78 4 2   101.47   -11 LegendNANA
19:00 -9.0 -11.7 81 10 4   101.44   -11 LegendNANA
20:00 -9.3 -11.0 87 13 4   101.42   -12 LegendNANA
21:00 -8.7 -10.9 84 14 7   101.41   -13 LegendNANA
22:00 -9.4 -11.9 82 3 7   101.37   -13 LegendNANA
23:00 -8.4 -10.3 86 3 9   101.32   -13 LegendNANA

Notes on Data Quality.

Legend

  • E = Estimated
  • M = Missing
  • NA = Not Available
  • ‡ = Partner data that is not subject to review by the National Climate Archives
Date modified: